Weather History for Pellston, MI

Change the Weather History Date:

Monday, May 27, 2013

  Actual Average Record
Temperature  
Mean Temperature 50 °F -  
Max Temperature 72 °F 70 °F 89 °F (1978)
Min Temperature 30 °F 41 °F 24 °F (1961)
Degree Days  
Heating Degree Days 14    
Moisture  
Dew Point 31 °F    
Average Humidity 51    
Maximum Humidity 96    
Minimum Humidity 19    
Precipitation  
Precipitation 0.00 in - - ()
Sea Level Pressure  
Sea Level Pressure 30.17 in    
Wind  
Wind Speed 4 mph (ESE)    
Max Wind Speed 16 mph    
Max Gust Speed 21 mph    
Visibility 10 miles    
Events      
Averages and records for this station are not official NWS values.
T = Trace of Precipitation, MM = Missing Value Source: NWS Daily Summary

Daily Weather History Graph

Daily Weather History Graph

Search for Another Location

Airport:

Trip Planner

Search our weather history database for the weather conditions in past years. The results will help you decide how hot, cold, wet, or windy it might be!

Date:

Astronomy

May. 27, 2013 Rise Set
Actual Time 5:56 AM EDT 9:16 PM EDT
Civil Twilight 5:20 AM EDT 9:53 PM EDT
Nautical Twilight 4:32 AM EDT 10:40 PM EDT
Astronomical Twilight 3:33 AM EDT 11:40 PM EDT
Moon 11:51 PM EDT (5/27) 8:35 AM EDT (5/27)
Length of Visible Light 16h 32m
Length of Day
15h 19m
Waning Gibbous, 91% of the Moon is Illuminated
May 27
Waning Gibbous
May 31
Last Quarter
Jun 8
New
Jun 16
First Quarter
Jun 23
Full

Hourly Weather History & Observations

Time (EDT) Temp. Dew Point Humidity Pressure Visibility Wind Dir Wind Speed Gust Speed Precip Events Conditions
12:54 AM 37.0 °F 35.1 °F 93% 30.28 in 10.0 mi Calm Calm - N/A   Clear
1:54 AM 35.1 °F 33.1 °F 92% 30.27 in 10.0 mi Calm Calm - N/A   Clear
2:54 AM 34.0 °F 32.0 °F 92% 30.27 in 10.0 mi Calm Calm - N/A   Clear
3:54 AM 33.1 °F 30.9 °F 92% 30.24 in 10.0 mi Calm Calm - N/A   Clear
4:54 AM 30.9 °F 30.0 °F 96% 30.25 in 10.0 mi Calm Calm - N/A   Clear
5:54 AM 30.9 °F 28.9 °F 92% 30.25 in 10.0 mi Calm Calm - N/A   Clear
6:54 AM 36.0 °F 33.1 °F 89% 30.26 in 10.0 mi Calm Calm - N/A   Clear
7:54 AM 44.1 °F 37.9 °F 79% 30.25 in 10.0 mi Calm Calm - N/A   Clear
8:54 AM 51.1 °F 43.0 °F 74% 30.24 in 10.0 mi Calm Calm - N/A   Clear
9:54 AM 57.0 °F 39.9 °F 53% 30.25 in 10.0 mi SSE 5.8 mph - N/A   Clear
10:54 AM 62.1 °F 37.0 °F 39% 30.24 in 10.0 mi SE 5.8 mph - N/A   Clear
11:54 AM 66.0 °F 30.9 °F 27% 30.20 in 10.0 mi SE 8.1 mph 17.3 mph N/A   Clear
12:54 PM 69.1 °F 30.0 °F 23% 30.18 in 10.0 mi ESE 11.5 mph 17.3 mph N/A   Clear
1:54 PM 69.1 °F 27.0 °F 21% 30.17 in 10.0 mi ESE 15.0 mph 19.6 mph N/A   Clear
2:54 PM 70.0 °F 27.0 °F 20% 30.15 in 10.0 mi SE 11.5 mph - N/A   Clear
3:54 PM 71.1 °F 26.1 °F 19% 30.12 in 10.0 mi ESE 10.4 mph 20.7 mph N/A   Clear
4:54 PM 71.1 °F 26.1 °F 19% 30.09 in 10.0 mi ESE 11.5 mph - N/A   Clear
5:54 PM 71.1 °F 26.1 °F 19% 30.06 in 10.0 mi East 16.1 mph - N/A   Clear
6:54 PM 69.1 °F 26.1 °F 20% 30.05 in 10.0 mi East 12.7 mph 20.7 mph N/A   Clear
7:54 PM 66.0 °F 28.0 °F 24% 30.05 in 10.0 mi ESE 9.2 mph - N/A   Clear
8:54 PM 63.0 °F 25.0 °F 24% 30.05 in 10.0 mi East 8.1 mph - N/A   Clear
9:54 PM 60.1 °F 28.9 °F 31% 30.06 in 10.0 mi East 6.9 mph - N/A   Clear
10:54 PM 57.0 °F 32.0 °F 39% 30.06 in 10.0 mi SE 9.2 mph - N/A   Clear
11:54 PM 55.0 °F 35.1 °F 47% 30.04 in 10.0 mi ESE 5.8 mph - N/A   Clear